Time,TemperatureF,DewpointF,PressureIn,WindDirection,WindDirectionDegrees,WindSpeedMPH,WindSpeedGustMPH,Humidity,HourlyPrecipIn,Conditions,Clouds,dailyrainin,SoftwareType,DateUTC
2013-03-21 00:00:00,35.1,28.0,29.77,ESE,111,0.0,17.0,75,0.00,,---,0.00,VWS V13.01,2013-03-21 04:00:00,
2013-03-21 00:05:00,35.2,27.8,29.77,ESE,111,0.0,17.0,74,0.00,,---,0.00,VWS V13.01,2013-03-21 04:05:00,
2013-03-21 00:10:00,35.4,28.0,29.76,ESE,111,0.0,17.0,74,0.00,,---,0.00,VWS V13.01,2013-03-21 04:10:00,
2013-03-21 00:15:00,35.5,28.4,29.76,ESE,111,0.0,17.0,75,0.00,,---,0.00,VWS V13.01,2013-03-21 04:15:00,
2013-03-21 00:20:00,35.6,28.1,29.76,ESE,112,0.0,17.0,74,0.00,,---,0.00,VWS V13.01,2013-03-21 04:20:00,
2013-03-21 00:25:00,35.9,28.8,29.75,ESE,111,0.0,17.0,75,0.00,,---,0.00,VWS V13.01,2013-03-21 04:25:00,
2013-03-21 00:30:00,36.1,28.6,29.75,ESE,112,0.0,17.0,74,0.00,,---,0.00,VWS V13.01,2013-03-21 04:30:00,
2013-03-21 00:35:00,36.2,28.7,29.75,ESE,111,0.0,17.0,74,0.00,,---,0.00,VWS V13.01,2013-03-21 04:35:00,
2013-03-21 00:40:00,36.3,28.8,29.75,ESE,112,0.0,17.0,74,0.00,,---,0.00,VWS V13.01,2013-03-21 04:40:00,
2013-03-21 00:45:00,36.4,28.9,29.75,ESE,111,0.0,17.0,74,0.00,,---,0.00,VWS V13.01,2013-03-21 04:45:00,
2013-03-21 00:50:00,36.5,28.7,29.75,ESE,112,0.0,17.0,73,0.00,,---,0.00,VWS V13.01,2013-03-21 04:50:00,
2013-03-21 00:55:00,36.6,28.8,29.75,ESE,112,0.0,17.0,73,0.00,,---,0.00,VWS V13.01,2013-03-21 04:55:00,
2013-03-21 01:00:00,36.7,29.5,29.75,ESE,111,0.0,17.0,75,0.00,,---,0.00,VWS V13.01,2013-03-21 05:00:00,
2013-03-21 01:05:00,36.8,29.6,29.75,ESE,112,0.0,17.0,75,0.00,,---,0.00,VWS V13.01,2013-03-21 05:05:00,
2013-03-21 01:10:00,36.8,29.0,29.74,ESE,112,0.0,17.0,73,0.00,,---,0.00,VWS V13.01,2013-03-21 05:10:00,
2013-03-21 01:15:00,37.0,29.5,29.74,ESE,112,0.0,17.0,74,0.00,,---,0.00,VWS V13.01,2013-03-21 05:15:00,
2013-03-21 01:20:00,37.2,30.0,29.74,ESE,112,0.0,17.0,75,0.00,,---,0.00,VWS V13.01,2013-03-21 05:20:00,
2013-03-21 01:25:00,37.4,30.5,29.74,ESE,112,0.0,17.0,76,0.00,,---,0.00,VWS V13.01,2013-03-21 05:25:00,
2013-03-21 01:30:00,37.8,30.6,29.74,West,274,0.0,17.0,75,0.00,,---,0.00,VWS V13.01,2013-03-21 05:30:00,
2013-03-21 01:35:00,38.3,31.1,29.74,East,86,0.0,17.0,75,0.00,,---,0.00,VWS V13.01,2013-03-21 05:35:00,
2013-03-21 01:40:00,39.4,33.1,29.74,ENE,71,2.0,17.0,78,0.00,,---,0.00,VWS V13.01,2013-03-21 05:40:00,
2013-03-21 01:45:00,40.0,33.1,29.74,WSW,257,0.0,17.0,76,0.00,,---,0.00,VWS V13.01,2013-03-21 05:45:00,
2013-03-21 01:50:00,40.4,33.5,29.74,SSW,194,0.0,17.0,76,0.00,,---,0.00,VWS V13.01,2013-03-21 05:50:00,
2013-03-21 01:55:00,40.9,33.9,29.72,ESE,103,0.0,17.0,76,0.00,,---,0.00,VWS V13.01,2013-03-21 05:55:00,
2013-03-21 02:00:00,41.2,34.5,29.72,SE,131,0.0,17.0,77,0.00,,---,0.00,VWS V13.01,2013-03-21 06:00:00,
2013-03-21 02:05:00,41.4,33.1,29.72,East,98,2.0,17.0,72,0.00,,---,0.00,VWS V13.01,2013-03-21 06:05:00,
2013-03-21 02:10:00,41.7,32.7,29.71,East,90,0.0,17.0,70,0.00,,---,0.00,VWS V13.01,2013-03-21 06:10:00,
2013-03-21 02:15:00,41.9,32.8,29.71,NNE,30,0.0,17.0,70,0.00,,---,0.00,VWS V13.01,2013-03-21 06:15:00,
2013-03-21 02:20:00,41.9,32.8,29.71,NNE,30,0.0,17.0,70,0.00,,---,0.00,VWS V13.01,2013-03-21 06:20:00,
2013-03-21 02:25:00,41.8,32.8,29.71,NW,321,0.0,17.0,70,0.00,,---,0.00,VWS V13.01,2013-03-21 06:25:00,
2013-03-21 02:30:00,41.6,32.9,29.71,NW,322,0.0,17.0,71,0.00,,---,0.00,VWS V13.01,2013-03-21 06:30:00,
2013-03-21 02:35:00,41.3,33.0,29.71,NW,321,0.0,17.0,72,0.00,,---,0.00,VWS V13.01,2013-03-21 06:35:00,
2013-03-21 02:40:00,40.8,33.2,29.71,NW,322,0.0,17.0,74,0.00,,---,0.00,VWS V13.01,2013-03-21 06:40:00,
2013-03-21 02:45:00,40.3,33.3,29.71,NW,322,0.0,17.0,76,0.00,,---,0.00,VWS V13.01,2013-03-21 06:45:00,
2013-03-21 02:50:00,39.7,33.1,29.71,NW,322,0.0,17.0,77,0.00,,---,0.00,VWS V13.01,2013-03-21 06:50:00,
2013-03-21 02:55:00,39.2,32.6,29.71,NW,322,0.0,17.0,77,0.00,,---,0.00,VWS V13.01,2013-03-21 06:55:00,
2013-03-21 03:00:00,38.9,32.6,29.71,NW,321,0.0,17.0,78,0.00,,---,0.00,VWS V13.01,2013-03-21 07:00:00,
2013-03-21 03:05:00,38.4,32.8,29.71,NW,322,0.0,17.0,80,0.00,,---,0.00,VWS V13.01,2013-03-21 07:05:00,
2013-03-21 03:10:00,38.1,32.5,29.72,WNW,282,0.0,17.0,80,0.00,,---,0.00,VWS V13.01,2013-03-21 07:10:00,
2013-03-21 03:15:00,38.0,32.1,29.72,SW,216,0.0,17.0,79,0.00,,---,0.00,VWS V13.01,2013-03-21 07:15:00,
2013-03-21 03:20:00,37.8,31.9,29.72,SW,217,0.0,17.0,79,0.00,,---,0.00,VWS V13.01,2013-03-21 07:20:00,
2013-03-21 03:25:00,37.4,31.8,29.72,SW,217,0.0,17.0,80,0.00,,---,0.00,VWS V13.01,2013-03-21 07:25:00,
2013-03-21 03:30:00,37.4,30.5,29.72,WNW,290,0.0,17.0,76,0.00,,---,0.00,VWS V13.01,2013-03-21 07:30:00,
2013-03-21 03:35:00,38.0,29.5,29.72,SSW,205,1.0,17.0,71,0.00,,---,0.00,VWS V13.01,2013-03-21 07:35:00,
2013-03-21 03:40:00,38.6,28.2,29.71,WNW,293,0.0,17.0,66,0.00,,---,0.00,VWS V13.01,2013-03-21 07:40:00,
2013-03-21 03:45:00,39.2,28.1,29.71,WNW,287,4.0,17.0,64,0.00,,---,0.00,VWS V13.01,2013-03-21 07:45:00,
2013-03-21 03:50:00,39.6,28.4,29.71,West,262,0.0,17.0,64,0.00,,---,0.00,VWS V13.01,2013-03-21 07:50:00,
2013-03-21 03:55:00,39.6,28.1,29.71,East,101,0.0,17.0,63,0.00,,---,0.00,VWS V13.01,2013-03-21 07:55:00,
2013-03-21 04:00:00,39.4,27.9,29.71,WNW,301,0.0,17.0,63,0.00,,---,0.00,VWS V13.01,2013-03-21 08:00:00,
2013-03-21 04:05:00,39.2,27.7,29.71,NW,307,0.0,17.0,63,0.00,,---,0.00,VWS V13.01,2013-03-21 08:05:00,
2013-03-21 04:10:00,39.0,27.9,29.71,NW,306,0.0,17.0,64,0.00,,---,0.00,VWS V13.01,2013-03-21 08:10:00,
2013-03-21 04:15:00,38.8,28.1,29.71,WSW,239,1.0,17.0,65,0.00,,---,0.00,VWS V13.01,2013-03-21 08:15:00,
2013-03-21 04:20:00,38.6,28.2,29.71,WSW,254,0.0,17.0,66,0.00,,---,0.00,VWS V13.01,2013-03-21 08:20:00,
2013-03-21 04:25:00,38.7,28.0,29.71,WNW,294,0.0,17.0,65,0.00,,---,0.00,VWS V13.01,2013-03-21 08:25:00,
2013-03-21 04:30:00,38.7,27.6,29.71,WNW,295,0.0,17.0,64,0.00,,---,0.00,VWS V13.01,2013-03-21 08:30:00,
2013-03-21 04:35:00,38.4,27.7,29.71,WSW,257,0.0,17.0,65,0.00,,---,0.00,VWS V13.01,2013-03-21 08:35:00,
2013-03-21 04:40:00,38.3,27.6,29.71,WNW,283,0.0,17.0,65,0.00,,---,0.00,VWS V13.01,2013-03-21 08:40:00,
2013-03-21 04:45:00,38.3,27.6,29.71,WNW,291,0.0,17.0,65,0.00,,---,0.00,VWS V13.01,2013-03-21 08:45:00,
2013-03-21 04:50:00,38.2,27.5,29.71,NW,318,2.0,17.0,65,0.00,,---,0.00,VWS V13.01,2013-03-21 08:50:00,
2013-03-21 04:55:00,38.1,26.6,29.71,WNW,291,2.0,17.0,63,0.00,,---,0.00,VWS V13.01,2013-03-21 08:55:00,
2013-03-21 05:00:00,38.0,26.5,29.71,SE,131,0.0,17.0,63,0.00,,---,0.00,VWS V13.01,2013-03-21 09:00:00,
2013-03-21 05:05:00,37.7,26.3,29.71,ESE,103,0.0,17.0,63,0.00,,---,0.00,VWS V13.01,2013-03-21 09:05:00,
2013-03-21 05:10:00,37.5,26.1,29.72,WSW,240,0.0,17.0,63,0.00,,---,0.00,VWS V13.01,2013-03-21 09:10:00,
2013-03-21 05:15:00,37.3,26.3,29.72,East,92,0.0,17.0,64,0.00,,---,0.00,VWS V13.01,2013-03-21 09:15:00,
2013-03-21 05:20:00,37.1,25.7,29.72,NNE,19,0.0,17.0,63,0.00,,---,0.00,VWS V13.01,2013-03-21 09:20:00,
2013-03-21 05:25:00,37.1,26.1,29.73,East,85,0.0,17.0,64,0.00,,---,0.00,VWS V13.01,2013-03-21 09:25:00,
2013-03-21 05:30:00,36.9,25.1,29.73,WNW,292,2.0,17.0,62,0.00,,---,0.00,VWS V13.01,2013-03-21 09:30:00,
2013-03-21 05:35:00,37.0,25.2,29.73,WNW,292,0.0,17.0,62,0.00,,---,0.00,VWS V13.01,2013-03-21 09:35:00,
2013-03-21 05:40:00,36.9,24.7,29.73,WNW,290,1.0,17.0,61,0.00,,---,0.00,VWS V13.01,2013-03-21 09:40:00,
2013-03-21 05:45:00,36.9,25.1,29.73,WSW,238,0.0,17.0,62,0.00,,---,0.00,VWS V13.01,2013-03-21 09:45:00,
2013-03-21 05:50:00,36.7,24.9,29.73,SSW,206,0.0,17.0,62,0.00,,---,0.00,VWS V13.01,2013-03-21 09:50:00,
2013-03-21 05:55:00,36.5,25.5,29.73,East,100,0.0,17.0,64,0.00,,---,0.00,VWS V13.01,2013-03-21 09:55:00,
2013-03-21 06:00:00,36.4,25.0,29.73,WNW,300,0.0,17.0,63,0.00,,---,0.00,VWS V13.01,2013-03-21 10:00:00,
2013-03-21 06:05:00,36.4,25.0,29.73,ESE,121,0.0,17.0,63,0.00,,---,0.00,VWS V13.01,2013-03-21 10:05:00,
2013-03-21 06:10:00,36.6,25.2,29.74,WSW,253,0.0,17.0,63,0.00,,---,0.00,VWS V13.01,2013-03-21 10:10:00,
2013-03-21 06:15:00,36.6,25.2,29.74,West,269,0.0,17.0,63,0.00,,---,0.00,VWS V13.01,2013-03-21 10:15:00,
2013-03-21 06:20:00,36.5,24.7,29.74,SW,225,0.0,17.0,62,0.00,,---,0.00,VWS V13.01,2013-03-21 10:20:00,
2013-03-21 06:25:00,36.5,24.7,29.75,NW,318,0.0,17.0,62,0.00,,---,0.00,VWS V13.01,2013-03-21 10:25:00,
2013-03-21 06:30:00,36.5,24.7,29.75,WNW,293,0.0,17.0,62,0.00,,---,0.00,VWS V13.01,2013-03-21 10:30:00,
2013-03-21 06:35:00,36.5,24.7,29.75,WNW,292,1.0,17.0,62,0.00,,---,0.00,VWS V13.01,2013-03-21 10:35:00,
2013-03-21 06:40:00,36.4,24.6,29.75,SW,231,0.0,17.0,62,0.00,,---,0.00,VWS V13.01,2013-03-21 10:40:00,
2013-03-21 06:45:00,36.1,24.7,29.75,West,278,0.0,17.0,63,0.00,,---,0.00,VWS V13.01,2013-03-21 10:45:00,
2013-03-21 06:50:00,35.8,24.5,29.75,ESE,117,1.0,17.0,63,0.00,,---,0.00,VWS V13.01,2013-03-21 10:50:00,
2013-03-21 06:55:00,35.5,24.5,29.75,WNW,298,0.0,17.0,64,0.00,,---,0.00,VWS V13.01,2013-03-21 10:55:00,
2013-03-21 07:00:00,35.3,24.4,29.75,West,274,0.0,17.0,64,0.00,,---,0.00,VWS V13.01,2013-03-21 11:00:00,
2013-03-21 07:05:00,35.0,24.4,29.75,WSW,253,0.0,17.0,65,0.00,,---,0.00,VWS V13.01,2013-03-21 11:05:00,
2013-03-21 07:10:00,34.7,24.1,29.75,WSW,253,0.0,17.0,65,0.00,,---,0.00,VWS V13.01,2013-03-21 11:10:00,
2013-03-21 07:15:00,34.3,24.1,29.75,SW,228,0.0,17.0,66,0.00,,---,0.00,VWS V13.01,2013-03-21 11:15:00,
2013-03-21 07:20:00,34.0,23.9,29.75,SW,228,0.0,17.0,66,0.00,,---,0.00,VWS V13.01,2013-03-21 11:20:00,
2013-03-21 07:25:00,34.0,23.5,29.76,WNW,285,0.0,17.0,65,0.00,,---,0.00,VWS V13.01,2013-03-21 11:25:00,
2013-03-21 07:30:00,34.0,23.1,29.76,WNW,300,1.0,17.0,64,0.00,,---,0.00,VWS V13.01,2013-03-21 11:30:00,
2013-03-21 07:35:00,34.0,23.1,29.76,WNW,295,0.0,17.0,64,0.00,,---,0.00,VWS V13.01,2013-03-21 11:35:00,
2013-03-21 07:40:00,34.0,22.7,29.77,NW,312,0.0,17.0,63,0.00,,---,0.00,VWS V13.01,2013-03-21 11:40:00,
2013-03-21 07:45:00,33.8,23.3,29.77,NW,312,0.0,17.0,65,0.00,,---,0.00,VWS V13.01,2013-03-21 11:45:00,
2013-03-21 07:50:00,33.6,22.7,29.77,NW,304,0.0,17.0,64,0.00,,---,0.00,VWS V13.01,2013-03-21 11:50:00,
2013-03-21 07:55:00,33.6,23.1,29.77,SE,144,0.0,17.0,65,0.00,,---,0.00,VWS V13.01,2013-03-21 11:55:00,
2013-03-21 08:00:00,33.5,23.0,29.77,WNW,288,0.0,17.0,65,0.00,,---,0.00,VWS V13.01,2013-03-21 12:00:00,
2013-03-21 08:05:00,33.5,23.0,29.77,WNW,296,0.0,17.0,65,0.00,,---,0.00,VWS V13.01,2013-03-21 12:05:00,
2013-03-21 08:10:00,33.8,22.9,29.77,WNW,294,0.0,17.0,64,0.00,,---,0.00,VWS V13.01,2013-03-21 12:10:00,
2013-03-21 08:15:00,34.1,23.6,29.77,WNW,293,0.0,17.0,65,0.00,,---,0.00,VWS V13.01,2013-03-21 12:15:00,
2013-03-21 08:20:00,34.3,23.4,29.77,WSW,246,0.0,17.0,64,0.00,,---,0.00,VWS V13.01,2013-03-21 12:20:00,
2013-03-21 08:25:00,34.7,23.0,29.78,WNW,291,3.0,17.0,62,0.00,,---,0.00,VWS V13.01,2013-03-21 12:25:00,
2013-03-21 08:30:00,35.0,23.7,29.78,WNW,291,1.0,17.0,63,0.00,,---,0.00,VWS V13.01,2013-03-21 12:30:00,
2013-03-21 08:35:00,35.3,23.2,29.78,NW,304,1.0,17.0,61,0.00,,---,0.00,VWS V13.01,2013-03-21 12:35:00,
2013-03-21 08:40:00,35.5,23.4,29.78,SW,236,0.0,17.0,61,0.00,,---,0.00,VWS V13.01,2013-03-21 12:40:00,
2013-03-21 08:45:00,35.7,23.6,29.78,West,270,1.0,17.0,61,0.00,,---,0.00,VWS V13.01,2013-03-21 12:45:00,
2013-03-21 08:50:00,35.8,22.1,29.78,WNW,283,0.0,17.0,57,0.00,,---,0.00,VWS V13.01,2013-03-21 12:50:00,
2013-03-21 08:55:00,36.0,22.7,29.79,West,260,2.0,17.0,58,0.00,,---,0.00,VWS V13.01,2013-03-21 12:55:00,
2013-03-21 09:00:00,36.3,21.7,29.79,WNW,293,0.0,17.0,55,0.00,,---,0.00,VWS V13.01,2013-03-21 13:00:00,
2013-03-21 09:05:00,36.5,21.5,29.79,WSW,238,2.0,17.0,54,0.00,,---,0.00,VWS V13.01,2013-03-21 13:05:00,
2013-03-21 09:10:00,36.6,20.2,29.79,WNW,293,3.0,17.0,51,0.00,,---,0.00,VWS V13.01,2013-03-21 13:10:00,
2013-03-21 09:15:00,36.8,20.8,29.79,SW,219,0.0,17.0,52,0.00,,---,0.00,VWS V13.01,2013-03-21 13:15:00,
2013-03-21 09:20:00,37.1,20.7,29.79,WNW,300,0.0,17.0,51,0.00,,---,0.00,VWS V13.01,2013-03-21 13:20:00,
2013-03-21 09:25:00,37.5,21.5,29.79,WNW,300,2.0,17.0,52,0.00,,---,0.00,VWS V13.01,2013-03-21 13:25:00,
2013-03-21 09:30:00,37.6,21.1,29.79,SW,223,4.0,17.0,51,0.00,,---,0.00,VWS V13.01,2013-03-21 13:30:00,
2013-03-21 09:35:00,37.9,21.9,29.79,NW,318,0.0,17.0,52,0.00,,---,0.00,VWS V13.01,2013-03-21 13:35:00,
2013-03-21 09:40:00,38.1,22.0,29.79,SSE,167,0.0,17.0,52,0.00,,---,0.00,VWS V13.01,2013-03-21 13:40:00,
2013-03-21 09:45:00,38.5,22.4,29.79,NW,307,1.0,17.0,52,0.00,,---,0.00,VWS V13.01,2013-03-21 13:45:00,
2013-03-21 09:50:00,38.7,22.1,29.79,WSW,246,1.0,17.0,51,0.00,,---,0.00,VWS V13.01,2013-03-21 13:50:00,
2013-03-21 09:55:00,38.9,21.9,29.79,WSW,245,2.0,17.0,50,0.00,,---,0.00,VWS V13.01,2013-03-21 13:55:00,
2013-03-21 10:00:00,39.3,21.3,29.79,ESE,108,1.0,17.0,48,0.00,,---,0.00,VWS V13.01,2013-03-21 14:00:00,
2013-03-21 10:05:00,39.7,20.1,29.79,WSW,258,0.0,17.0,45,0.00,,---,0.00,VWS V13.01,2013-03-21 14:05:00,
2013-03-21 10:10:00,40.3,20.7,29.79,NW,315,0.0,17.0,45,0.00,,---,0.00,VWS V13.01,2013-03-21 14:10:00,
2013-03-21 10:15:00,40.6,18.8,29.79,NNE,13,1.0,17.0,41,0.00,,---,0.00,VWS V13.01,2013-03-21 14:15:00,
2013-03-21 10:20:00,40.9,18.5,29.79,SW,229,2.0,17.0,40,0.00,,---,0.00,VWS V13.01,2013-03-21 14:20:00,
2013-03-21 10:25:00,41.4,18.9,29.79,East,98,0.0,17.0,40,0.00,,---,0.00,VWS V13.01,2013-03-21 14:25:00,
2013-03-21 10:30:00,42.2,19.6,29.79,WSW,240,0.0,17.0,40,0.00,,---,0.00,VWS V13.01,2013-03-21 14:30:00,
2013-03-21 10:35:00,42.4,18.0,29.79,SW,217,2.0,17.0,37,0.00,,---,0.00,VWS V13.01,2013-03-21 14:35:00,
2013-03-21 10:40:00,42.7,19.5,29.79,SW,225,2.0,17.0,39,0.00,,---,0.00,VWS V13.01,2013-03-21 14:40:00,
2013-03-21 10:45:00,43.1,19.2,29.79,SSE,161,1.0,17.0,38,0.00,,---,0.00,VWS V13.01,2013-03-21 14:45:00,
2013-03-21 10:50:00,43.8,20.5,29.79,SW,217,3.0,17.0,39,0.00,,---,0.00,VWS V13.01,2013-03-21 14:50:00,
2013-03-21 10:55:00,43.5,16.3,29.80,WNW,294,2.0,17.0,33,0.00,,---,0.00,VWS V13.01,2013-03-21 14:55:00,
2013-03-21 11:00:00,43.3,19.4,29.80,West,263,2.0,17.0,38,0.00,,---,0.00,VWS V13.01,2013-03-21 15:00:00,
2013-03-21 11:05:00,43.6,17.8,29.80,WSW,240,3.0,17.0,35,0.00,,---,0.00,VWS V13.01,2013-03-21 15:05:00,
2013-03-21 11:10:00,43.6,17.8,29.79,SSE,150,0.0,17.0,35,0.00,,---,0.00,VWS V13.01,2013-03-21 15:10:00,
2013-03-21 11:15:00,44.0,18.8,29.79,SSW,208,3.0,17.0,36,0.00,,---,0.00,VWS V13.01,2013-03-21 15:15:00,
2013-03-21 11:20:00,44.4,19.1,29.79,WNW,287,1.0,17.0,36,0.00,,---,0.00,VWS V13.01,2013-03-21 15:20:00,
2013-03-21 11:25:00,44.9,18.9,29.79,NW,304,1.0,17.0,35,0.00,,---,0.00,VWS V13.01,2013-03-21 15:25:00,
2013-03-21 11:30:00,44.8,18.2,29.79,SW,228,0.0,17.0,34,0.00,,---,0.00,VWS V13.01,2013-03-21 15:30:00,
2013-03-21 11:35:00,45.2,19.2,29.79,WNW,283,1.0,17.0,35,0.00,,---,0.00,VWS V13.01,2013-03-21 15:35:00,
2013-03-21 11:40:00,45.8,18.4,29.79,SSE,150,0.0,17.0,33,0.00,,---,0.00,VWS V13.01,2013-03-21 15:40:00,
2013-03-21 11:45:00,46.2,19.4,29.79,SSE,167,1.0,17.0,34,0.00,,---,0.00,VWS V13.01,2013-03-21 15:45:00,
2013-03-21 11:50:00,46.3,17.3,29.79,South,176,0.0,17.0,31,0.00,,---,0.00,VWS V13.01,2013-03-21 15:50:00,
2013-03-21 11:55:00,46.5,19.0,29.78,ESE,122,1.0,17.0,33,0.00,,---,0.00,VWS V13.01,2013-03-21 15:55:00,